AO-07 1 07530U 74089B 16279.98093022 -.00000032 00000-0 72957-4 0 9991 2 07530 101.5898 248.0953 0012404 94.8090 308.7673 12.53623432917003 FO-29 1 24278U 96046B 16279.79216724 -.00000021 00000-0 18168-4 0 9993 2 24278 98.5818 190.5241 0349303 276.2871 79.8599 13.53070986994473 RS-22 1 27939U 03042A 16280.85774383 .00000215 00000-0 47211-4 0 9998 2 27939 97.9050 68.3340 0011970 314.6778 204.0098 14.66462762696187 AO-73 1 39444U 13066AE 16279.82014532 .00000559 00000-0 76342-4 0 9995 2 39444 97.6685 328.6322 0059182 20.6654 339.6933 14.81195715153952 EO-79 1 40025U 14033R 16280.74804519 .00000706 00000-0 82592-4 0 9990 2 40025 97.9191 186.1277 0014028 60.7595 299.5022 14.88145610124798 XW-2A 1 40903U 15049E 16280.83974792 .00003840 00000-0 10724-3 0 9993 2 40903 97.4424 297.3766 0017486 95.1818 265.1423 15.37199721 58704 XW-2C 1 40906U 15049H 16280.81949782 .00001686 00000-0 96450-4 0 9992 2 40906 97.4552 285.5212 0016054 17.9362 342.2433 15.13916984 57899 LILACSAT-2 1 40908U 15049K 16280.77979845 .00000965 00000-0 58568-4 0 9999 2 40908 97.4619 285.2905 0016674 12.2704 347.8929 15.12743501 57856 UO-11 1 14781U 84021B 16280.10995568 .00000202 00000-0 31307-4 0 9998 2 14781 97.7364 328.6426 0007460 319.5522 40.5136 14.82802767752697 LO-19 1 20442U 90005G 16280.72721012 .00000033 00000-0 28185-4 0 9999 2 20442 98.5496 214.1455 0011812 171.0552 189.0844 14.32832319395323 AO-27 1 22825U 93061C 16280.12986163 .00000022 00000-0 26180-4 0 9996 2 22825 98.7732 237.1337 0008451 1.4254 358.6950 14.29970535201090 IO-26 1 22826U 93061D 16279.86925553 .00000030 00000-0 28847-4 0 9993 2 22826 98.7675 236.9826 0008818 352.6563 7.4489 14.30296664201225 GO-32 1 25397U 98043D 16280.75224223 .00000010 00000-0 23380-4 0 9995 2 25397 98.5773 222.8498 0002011 50.1226 310.0129 14.23604284947732 NO-44 1 26931U 01043C 16280.72096484 .00000020 00000-0 39579-4 0 9995 2 26931 67.0531 25.1555 0005360 268.1904 91.8583 14.30427411784091 SO-50 1 27607U 02058C 16279.93639076 .00000127 00000-0 38994-4 0 9992 2 27607 064.5556 182.4620 0055404 191.5920 168.3912 14.75219632741476 CO-55 1 27844U 03031E 16280.62930253 .00000082 00000-0 57063-4 0 9994 2 27844 98.6934 287.3200 0009821 7.5236 352.6087 14.21981780688285 CO-57 1 27848U 03031J 16280.56101807 .00000066 00000-0 49855-4 0 9998 2 27848 98.7031 287.3981 0009909 16.3162 343.8333 14.21604414688166 CO-65 1 32785U 08021C 16280.75787173 .00000454 00000-0 55543-4 0 9997 2 32785 97.5934 310.2806 0011724 290.1041 69.8914 14.87681606457219 PRISM 1 33493U 09002B 16280.70682181 .00001180 00000-0 11303-3 0 9994 2 33493 98.2006 145.9752 0015062 195.3115 164.7653 14.95182280417892 TISAT-1 1 36799U 10035E 16280.80531955 .00001066 00000-0 11647-3 0 9991 2 36799 98.0397 32.8769 0013828 81.0588 279.2193 14.90015784338049 ALMASAT-1 1 38078U 12006B 16279.91240162 .00023762 37098-5 29853-3 0 9997 2 38078 069.4447 090.2966 0362756 301.9407 054.6967 15.09305649246255 DUCHIFAT-1 1 40021U 14033M 16280.80599091 .00000979 00000-0 10857-3 0 9995 2 40021 97.9229 187.5419 0014613 58.2994 301.9646 14.89500675124870 NANOSATCBR1 1 40024U 14033Q 16280.69761324 .00000891 00000-0 10088-3 0 9994 2 40024 97.9199 186.6894 0013829 59.0926 301.1649 14.88882935124829 DTUSAT-2 1 40030U 14033W 16280.68968695 .00000664 00000-0 78811-4 0 9997 2 40030 97.9166 185.4250 0013398 55.6473 304.6009 14.87778441124758 ANTELSAT 1 40034U 14033AA 16280.73785240 .00000588 00000-0 95703-4 0 9994 2 40034 97.8863 166.0441 0060199 28.2891 332.1556 14.73490458123603 MET-2/21 1 22782U 93055A 16279.93923980 .00000075 00000-0 54412-4 0 9993 2 22782 082.5502 225.3347 0023860 065.3492 355.1004 13.83792297166269 NOAA-15 1 25338U 98030A 16280.52562364 .00000027 00000-0 30110-4 0 9999 2 25338 98.7855 284.9121 0009900 218.4846 141.5629 14.25756508956857 NOAA-18 1 28654U 05018A 16280.50278150 .00000001 00000-0 25816-4 0 9991 2 28654 99.1976 290.3304 0015196 64.9355 295.3391 14.12307790586446 NOAA-19 1 33591U 09005A 16280.47308307 .00000124 00000-0 92543-4 0 9998 2 33591 99.0539 238.2290 0012952 266.2866 93.6824 14.12112998394847 HUBBLE 1 20580U 90037B 16280.70378473 .00000956 00000-0 48508-4 0 9999 2 20580 28.4697 242.2105 0002601 330.8184 31.5772 15.08528467251969 ISS 1 25544U 98067A 16280.95133509 .00005562 00000-0 91394-4 0 9990 2 25544 51.6441 220.5493 0005781 53.8133 60.3990 15.54066927 22378 CO-58 1 28895U 05043F 16280.14952300 .00000288 00000-0 64453-4 0 9999 2 28895 97.8412 88.5686 0015934 224.4266 135.5659 14.63266617583332 AAUSAT2 1 32788U 08021F 16280.80877765 .00001112 00000-0 11091-3 0 9994 2 32788 97.5923 319.9407 0010613 255.5699 104.4343 14.93443963457854 DO-64 1 32789U 08021G 16279.87397775 .00002245 00000-0 16761-3 0 9995 2 32789 097.5939 337.1307 0011628 241.6985 118.3068 15.03791199458537 CO-66 1 32791U 08021J 16279.80578960 .00000645 00000-0 72452-4 0 9990 2 32791 97.5935 312.9062 0012024 279.6676 80.3184 14.89925818457260 RS-30 1 32953U 08025A 16280.83631557 .00000035 00000-0 17987-3 0 9995 2 32953 82.5061 37.2092 0019929 118.6238 241.6849 12.43071935379949 JUGNU 1 37839U 11058B 16280.75294238 .00000349 00000-0 43951-4 0 9994 2 37839 19.9606 187.1348 0018849 269.5090 122.5367 14.12556117257829 SRMSAT 1 37841U 11058D 16279.96472296 .00000338 00000-0 40673-4 0 9996 2 37841 019.9714 228.3710 0011965 167.9886 253.3391 14.10553087257257 AO-71 1 37854U 11061E 16280.71261660 .00003672 00000-0 20683-3 0 9992 2 37854 101.6966 19.6083 0171082 104.6307 257.3940 15.02879991268844 HRBE 1 37855U 11061F 16279.87902588 .00004865 00000-0 26584-3 0 9990 2 37855 101.7105 016.3437 0184578 112.0030 250.0903 15.01806015268135 HORYU-2 1 38340U 12025D 16280.21526219 .00000493 00000-0 81183-4 0 9994 2 38340 98.3648 269.3954 0012300 25.4224 334.7587 14.75137399235849 RS-40 1 38735U 12041C 16280.66102092 -.00000001 00000-0 -75910-4 0 9996 2 38735 82.4725 122.2786 0016214 219.3069 140.6834 12.42573637190206 BEESAT-3 1 39134U 13015E 16279.52778057 .00003218 00000-0 17344-3 0 9992 2 39134 64.8712 327.6707 0017338 306.0125 53.9393 15.16565023190849 BEESAT-2 1 39136U 13015G 16280.63442707 .00002008 00000-0 11985-3 0 9999 2 39136 64.8723 331.4738 0016324 308.2811 51.6845 15.14114586190872 ZACUBE-1 1 39417U 13066B 16279.92083679 .00000459 00000-0 64810-4 0 9990 2 39417 097.6674 327.9916 0060031 022.6065 337.7771 14.80504088155153 TRITON-1 1 39427U 13066M 16280.11384030 .00000433 00000-0 77289-4 0 9995 2 39427 97.6586 306.2881 0116103 82.5175 278.9204 14.67277533153787 GOMX-1 1 39430U 13066Q 16280.58978157 .00000425 00000-0 86075-4 0 9993 2 39430 97.6659 293.0497 0153088 123.5848 238.0062 14.58685664152960 LO-74 1 39440U 13066AA 16280.18617105 .00000455 00000-0 70819-4 0 9995 2 39440 97.6620 319.5042 0081997 44.8737 315.9063 14.75259344154644 SPROUT 1 39770U 14029E 16280.03343094 .00001917 00000-0 22720-3 0 9999 2 39770 97.8743 16.0428 0010652 83.6916 276.5535 14.85675001128397 EO-80 1 40032U 14033Y 16280.78801328 .00000658 00000-0 78226-4 0 9992 2 40032 97.9173 185.5319 0013320 55.8152 304.4325 14.87712811124765 VELOX-1 1 40057U 14034E 16280.79337575 .00000771 00000-0 11732-3 0 9993 2 40057 98.1938 11.2648 0011896 144.8641 215.3342 14.76848484122358 DAURIA DX 1 1 40071U 14037C 16280.76423632 .00000339 00000-0 51332-4 0 9990 2 40071 98.3321 15.9775 0009120 140.5636 219.6250 14.80886263121466 UKUBE-1 1 40074U 14037F 16280.73068174 .00000814 00000-0 10671-3 0 9994 2 40074 98.3378 18.5624 0005446 138.3807 221.7834 14.83218967121606 HODOYOSHI-1 1 40299U 14070B 16280.81032088 .00001822 00000-0 83611-4 0 9999 2 40299 97.4248 1.2112 0011885 260.4484 214.1861 15.21643129106406 CHUBUSAT-1 1 40300U 14070C 16280.80056388 .00001942 00000-0 92501-4 0 9991 2 40300 97.4187 359.1142 0019426 268.6945 205.0531 15.20181543106285 QSAT-EOS 1 40301U 14070D 16280.78165149 .00003713 00000-0 16519-3 0 9997 2 40301 97.4129 358.5864 0027243 266.7035 209.1678 15.21787181106278 FIREBIRD FU3 1 40377U 15003B 16280.83875165 .00006482 00000-0 28590-3 0 9997 2 40377 99.0982 48.9915 0142088 120.8358 240.6938 15.13543757 92662 FIREBIRD FU4 1 40378U 15003C 16280.83430808 .00006361 00000-0 28028-3 0 9991 2 40378 99.0985 49.0056 0142300 120.7794 240.7531 15.13562839 92666 GRIFEX 1 40379U 15003D 16280.77525405 .00005452 00000-0 25219-3 0 9992 2 40379 99.0987 47.7214 0146883 125.6060 235.8953 15.11548743 92580 NO-84 1 40654U 15025D 16280.32983276 .00016586 00000-0 33901-3 0 02436 2 40654 054.9981 286.8679 0199708 350.8730 008.8730 15.27768059041015 NO-83 1 40655U 15025E 16280.30146587 .00028634 00000-0 51872-3 0 02659 2 40655 054.9851 276.4439 0178183 356.2600 003.7149 15.33860760041131 DEORBITSAIL 1 40719U 15032E 16280.29244594 .00000830 00000-0 12876-3 0 9996 2 40719 98.0026 170.8737 0015266 238.6342 121.3374 14.75714865 66875 NUDT-PHONESAT 1 40900U 15049B 16280.81855373 .00004329 00000-0 21744-3 0 9998 2 40900 97.4464 286.6300 0015794 35.0919 325.1351 15.17703356 58008 XW-2D 1 40907U 15049J 16280.81697579 .00001818 00000-0 10355-3 0 9993 2 40907 97.4520 285.3547 0015342 16.7568 343.4168 15.13980217 57896 XW-2F 1 40910U 15049M 16280.81229058 .00002476 00000-0 13739-3 0 9990 2 40910 97.4548 285.6664 0016263 15.1540 345.0176 15.14579108 57788 XW-2B 1 40911U 15049N 16280.81789754 .00001850 00000-0 10539-3 0 9995 2 40911 97.4567 285.5944 0015239 17.0149 343.1590 15.13956789 57791 DCBB 1 40912U 15049P 16280.75046234 .00003172 00000-0 16538-3 0 9992 2 40912 97.4538 286.7058 0016713 10.1798 75.9886 15.16574774 57860 TW-1C 1 40926U 15051B 16280.89789441 .00011505 00000-0 30476-3 0 9995 2 40926 97.2643 316.6665 0013646 15.7223 110.0261 15.38416280 57929 TW-1A 1 40928U 15051D 16280.77938755 .00004567 00000-0 14027-3 0 9992 2 40928 97.2591 315.0291 0014726 33.5067 56.1462 15.34118625 57825 IO-86 1 40931U 15052B 16280.67055917 .00000784 00000-0 20214-4 0 9999 2 40931 6.0012 240.2798 0013903 258.9150 100.9485 14.76486931 55439 GomX-3 1 40949U 98067HA 16280.78018893 .00255194 40488-4 36538-3 0 9999 2 40949 51.6185 168.7484 0002802 182.7161 177.3837 16.04971066 57806 LQSat 1 40958U 15057A 16280.79237214 .00000159 00000-0 32667-4 0 9999 2 40958 98.0064 354.1684 0018636 153.5876 206.6286 14.72905995 53813 AO-85 1 40967U 15058D 16280.37669792 .00000277 00000-0 49591-4 0 02767 2 40967 064.7766 268.6585 0190326 169.4249 191.0946 14.75181319039675 ATHENOXAT-1 1 41168U 15077C 16280.13708738 .00003992 00000-0 19555-3 0 9995 2 41168 14.9870 223.9640 0012845 96.6861 16.5293 15.10504513 44552 ChubuSat-2 1 41338U 16012B 16279.42512534 .00000772 00000-0 54490-4 0 9992 2 41338 31.0034 290.0163 0013970 57.9312 302.2678 14.99513051 34711 ChubuSat-3 1 41339U 16012C 16280.38786944 .00000712 00000-0 49454-4 0 9996 2 41339 31.0105 283.4715 0013475 73.3393 286.8724 14.99736528 34839 Horyu-4 1 41340U 16012D 16280.19333176 .00001154 00000-0 83291-4 0 9990 2 41340 31.0052 283.7278 0014301 77.7957 282.4280 15.00226194 34837 OUFTI-1 1 41458U 16025C 16280.25096142 .00005064 00000-0 27887-3 0 9992 2 41458 98.2130 297.1159 0179347 57.6941 304.1513 15.01762848 24447 [email protected] 1 41459U 16025D 16280.25303993 .00004590 00000-0 25370-3 0 9996 2 41459 98.2130 297.1061 0179310 57.7425 304.1038 15.01704973 24445 AAUSAT4 1 41460U 16025E 16280.82843383 .00005568 00000-0 30767-3 0 9995 2 41460 98.2057 297.7697 0175334 54.8525 306.8994 15.02112924 24537 MinXSS 1 41474U 98067HU 16280.33095683 .00049940 00000-0 52666-3 0 9998 2 41474 51.6422 218.9147 0002544 148.9653 211.1492 15.63727898 22285 CADRE 1 41475U 98067HV 16280.85068910 .00088512 00000-0 73061-3 0 9999 2 41475 51.6365 214.1019 0003283 140.9156 219.2079 15.69570076 22391 NODES 1 1 41477U 98067HX 16280.42054431 .00030466 00000-0 35446-3 0 9997 2 41477 51.6386 219.4905 0002524 140.6620 219.4558 15.61434412 22195 NODES 2 1 41478U 98067HY 16280.80861988 .00027965 00000-0 32665-3 0 9993 2 41478 51.6384 217.5808 0002464 141.6338 218.4831 15.61379713 22257 LO-87 1 41557U 16033B 16280.81466255 .00003431 00000-0 13641-3 0 9998 2 41557 97.4894 354.1650 0014839 174.5631 306.7365 15.25895768 19771 NuSat2 1 41558U 16033C 16280.76670743 .00003449 00000-0 13768-3 0 9991 2 41558 97.4916 354.1303 0014229 173.5862 339.3385 15.25758151 19767 Lapan A3 1 41603U 16040E 16280.74304119 .00000479 00000-0 26084-4 0 9995 2 41603 97.4994 339.2149 0012255 235.1294 271.3853 15.19146413 16179 Swayam 1 41607U 16040J 16280.71111389 .00003378 00000-0 16209-3 0 9999 2 41607 97.4964 339.1619 0013523 237.7345 122.2579 15.19498955 16096 Pratham 1 41783U 16059A 16280.79772872 .00000029 00000-0 15255-4 0 9993 2 41783 98.2040 338.2852 0032485 234.2186 125.5970 14.62763674 1564 OBJECT B 1 41784U 16059B 16280.72681891 .00000220 00000-0 52194-4 0 9993 2 41784 98.2056 338.2206 0030827 234.0651 125.7666 14.63116090 1512 OBJECT C 1 41785U 16059C 16280.72608395 -.00001357 00000-0 -25239-3 0 9995 2 41785 98.2053 338.2230 0030422 234.4295 125.4036 14.63202872 1518 OBJECT D 1 41786U 16059D 16280.63037395 -.00143441 00000-0 00000 0 0 9997 2 41786 98.2277 338.2060 0001654 49.3978 310.7875 14.68829660 1384 OBJECT E 1 41787U 16059E 16280.72446916 .00000172 00000-0 42614-4 0 9995 2 41787 98.2057 338.2247 0029398 233.9481 125.8989 14.63444353 1516 OBJECT F 1 41788U 16059F 16280.58647826 .00000231 00000-0 44222-4 0 9996 2 41788 98.2045 338.0862 0028683 236.1968 123.6995 14.63621830 751 AlSat 1N 1 41789U 16059G 16280.72083002 .00000183 00000-0 44181-4 0 9993 2 41789 98.2033 338.2310 0027702 228.7910 131.0880 14.63954504 1523 ScatSat 1 41790U 16059H 16280.82119991 .00000005 00000-0 12183-4 0 9993 2 41790 98.1048 335.0623 0010472 202.0614 158.0123 14.50098797 1544 OBJECT J 1 41791U 16059J 16279.78485906 .00000031 00000-0 16366-4 0 9995 2 41791 98.2775 337.2070 0041541 243.5389 116.1540 14.60732712 1409 OBJECT K 1 41792U 16059K 16280.72016728 .00000409 00000-0 86982-4 0 9994 2 41792 98.2062 338.2359 0026740 233.8923 125.9802 14.64048678 1516 /EX